DMSP 5D-2 F13 DEB

Satellite information

Favourite Embed

Satellite Type and Status

DEBRISIN ORBIT

Key statistics

Satellite DMSP 5D-2 F13 DEB at a glance.

Uptime

11004

Days in orbit

Revolutions

≈ 14.3

Per day

Orbit

SSO

Sun Synchronous Orbit

Inclination

98.7

Latest

Satellite identification and parameters

Extended collection of information and parameters for DMSP 5D-2 F13 DEB.

Object identification

Identified? True

Debris? True

Object name: DMSP 5D-2 F13 DEB

International designator: 1995-015J

Object number (NORAD): 40397

Object ID (CCSDS): 40397

Country: UNITED STATES OF AMERICA (US)

Current information (Y/N): Y

RCS size: SMALL

Orbital parameters

Period: 100.809 minutes

Inclination: 98.7208 deg

SMA: 7175.073 km

Apoapsis: 804.087 km

Periapsis: 789.79 km

RAAN: 149.9712 deg

Eccentricy: 0.0009963

Argument of periapsis: 124.1592 deg

Mean anomaly: 236.0535 deg

Mean motion: 14.28444038 rev/day

Mean motion (dot): 0.00002843 rev/day2

B* drag term: 0.001153 1/REarth

Two-line elements (TLE)

Creation date: May 8, 2025, 3:01 a.m.

Reference frame: TEME

Reference center: EARTH

Epoch: May 7, 2025, 12:32 a.m. UTC

TLE line 0: 0 DMSP 5D-2 F13 DEB

TLE line 1: 1 40397U 95015J 25127.02265836 .00002843 00000-0 11530-2 0 9991

TLE line 2: 2 40397 98.7208 149.9712 0009963 124.1592 236.0535 14.28444038528471

Live tracking on map

Real-time ground track for satellite DMSP 5D-2 F13 DEB.

In-orbit conjunctions

A list of the most updated potential collisions computed for object DMSP 5D-2 F13 DEB.

Target Orbit TCA Probability of collision Miss distance Type
THOR BURNER 2 R/B SSO 2025-03-14 22:39:04 0.0002713691 66.0 (m) ROCKET BODY
METEOR 1-5 DEB LEO 2025-02-19 16:03:30 0.0001207528 114.0 (m) DEBRIS
CZ-6A DEB LEO 2024-11-24 20:03:35 0.0007105414 866.0 (m) DEBRIS
DELTA 1 DEB SSO 2024-11-09 10:50:26 0.0001248195 842.0 (m) DEBRIS
COSMOS 1066 DEB LEO 2024-10-12 21:59:30 0.000152899 36.0 (m) DEBRIS

Associated space launch

Military meteorological satellite

DMSP 5D-2 F13 DEB was lifted into orbit during the mission ‘Atlas E | DMSP-5D2 F13’, on board a Atlas E space rocket.

The launch took place on March 24, 1995, 2:05 p.m. from Space Launch Complex 3W.

For more information about the launch, click the button.

Launch to space Atlas E | DMSP-5D2 F13
Atlas E | DMSP-5D2 F13

Agency: N/A

Status: Launch Successful

Launch date: March 24, 1995, 2:05 p.m. UTC

Rocket: Atlas E

Launch pad: Space Launch Complex 3W

Location: Vandenberg SFB, CA, USA

...

Latest news about this satellite

There are no fresh news available about this satellite. Check back as we update our databases every day.


Newsletter sign-up

Weekly statistics, charts and insights to help you stay on top of the space industry.